Time,TemperatureF,DewpointF,PressureIn,WindDirection,WindDirectionDegrees,WindSpeedMPH,WindSpeedGustMPH,Humidity,HourlyPrecipIn,Conditions,Clouds,dailyrainin,SoftwareType,DateUTC
2013-05-25 00:01:00,44.6,38.2,29.93,NNW,343,0.0,1.0,78,0.00,,,0.00,WeatherCatV1.15B25,2013-05-25 07:01:00,
2013-05-25 00:06:00,44.6,37.8,29.93,NNW,343,0.0,0.0,77,0.00,,,0.00,WeatherCatV1.15B25,2013-05-25 07:06:00,
2013-05-25 00:11:00,44.5,37.4,29.93,NNW,343,0.0,0.0,76,0.00,,,0.00,WeatherCatV1.15B25,2013-05-25 07:11:00,
2013-05-25 00:16:00,44.5,37.4,29.93,NNW,343,0.0,0.0,76,0.00,,,0.00,WeatherCatV1.15B25,2013-05-25 07:16:00,
2013-05-25 00:21:00,44.5,37.7,29.93,NNW,343,0.0,0.0,77,0.00,,,0.00,WeatherCatV1.15B25,2013-05-25 07:21:00,
2013-05-25 00:26:00,44.5,37.1,29.93,NNW,343,0.0,0.0,75,0.00,,,0.00,WeatherCatV1.15B25,2013-05-25 07:26:00,
2013-05-25 00:31:00,44.5,37.1,29.93,NNW,343,0.0,0.0,75,0.00,,,0.00,WeatherCatV1.15B25,2013-05-25 07:31:00,
2013-05-25 00:36:00,44.5,37.7,29.93,NNW,343,0.0,0.0,77,0.00,,,0.00,WeatherCatV1.15B25,2013-05-25 07:36:00,
2013-05-25 00:41:00,44.5,38.1,29.93,NNW,343,0.0,0.0,78,0.00,,,0.00,WeatherCatV1.15B25,2013-05-25 07:41:00,
2013-05-25 00:46:00,44.5,38.4,29.93,NNW,343,0.0,0.0,79,0.00,,,0.00,WeatherCatV1.15B25,2013-05-25 07:46:00,
2013-05-25 00:51:00,44.4,38.3,29.93,NNW,343,0.0,0.0,79,0.00,,,0.00,WeatherCatV1.15B25,2013-05-25 07:51:00,
2013-05-25 00:56:00,44.2,38.1,29.93,NNW,343,0.0,0.0,79,0.00,,,0.00,WeatherCatV1.15B25,2013-05-25 07:56:00,
2013-05-25 01:01:00,44.0,38.2,29.93,NNW,343,0.0,0.0,80,0.00,,,0.00,WeatherCatV1.15B25,2013-05-25 08:01:00,
2013-05-25 01:06:00,43.8,38.0,29.93,NNW,343,0.0,0.0,80,0.00,,,0.00,WeatherCatV1.15B25,2013-05-25 08:06:00,
2013-05-25 01:11:00,43.8,38.4,29.93,NNW,343,0.0,0.0,81,0.00,,,0.00,WeatherCatV1.15B25,2013-05-25 08:11:00,
2013-05-25 01:16:00,43.7,38.6,29.93,NNW,343,0.0,0.0,82,0.00,,,0.00,WeatherCatV1.15B25,2013-05-25 08:16:00,
2013-05-25 01:21:00,43.6,38.5,29.93,NNW,343,0.0,0.0,82,0.00,,,0.00,WeatherCatV1.15B25,2013-05-25 08:21:00,
2013-05-25 01:26:00,43.5,38.4,29.93,NNW,343,0.0,0.0,82,0.00,,,0.00,WeatherCatV1.15B25,2013-05-25 08:26:00,
2013-05-25 01:31:00,43.5,38.7,29.93,NNW,343,0.0,0.0,83,0.00,,,0.00,WeatherCatV1.15B25,2013-05-25 08:31:00,
2013-05-25 01:36:00,43.4,38.6,29.93,NNW,343,0.0,0.0,83,0.00,,,0.00,WeatherCatV1.15B25,2013-05-25 08:36:00,
2013-05-25 01:41:00,43.3,38.8,29.93,NNW,343,0.0,0.0,84,0.00,,,0.00,WeatherCatV1.15B25,2013-05-25 08:41:00,
2013-05-25 01:46:00,43.2,38.4,29.93,NNW,343,0.0,0.0,83,0.00,,,0.00,WeatherCatV1.15B25,2013-05-25 08:46:00,
2013-05-25 01:51:00,43.2,38.7,29.93,NNW,343,0.0,0.0,84,0.00,,,0.00,WeatherCatV1.15B25,2013-05-25 08:51:00,
2013-05-25 01:56:00,43.1,38.9,29.93,NNW,343,0.0,0.0,85,0.00,,,0.00,WeatherCatV1.15B25,2013-05-25 08:56:00,
2013-05-25 02:01:00,42.8,38.3,29.93,NNW,343,0.0,0.0,84,0.00,,,0.00,WeatherCatV1.15B25,2013-05-25 09:01:00,
2013-05-25 02:06:00,42.4,38.2,29.93,NNW,343,0.0,0.0,85,0.00,,,0.00,WeatherCatV1.15B25,2013-05-25 09:06:00,
2013-05-25 02:11:00,42.2,38.0,29.93,NNW,343,0.0,0.0,85,0.00,,,0.00,WeatherCatV1.15B25,2013-05-25 09:11:00,
2013-05-25 02:16:00,42.2,38.3,29.92,NNW,343,0.0,0.0,86,0.00,,,0.00,WeatherCatV1.15B25,2013-05-25 09:16:00,
2013-05-25 02:21:00,42.2,38.6,29.92,NNW,343,0.0,0.0,87,0.00,,,0.00,WeatherCatV1.15B25,2013-05-25 09:21:00,
2013-05-25 02:26:00,42.1,38.5,29.92,NNW,343,0.0,0.0,87,0.00,,,0.00,WeatherCatV1.15B25,2013-05-25 09:26:00,
2013-05-25 02:31:00,42.2,38.9,29.92,NNW,343,0.0,0.0,88,0.00,,,0.00,WeatherCatV1.15B25,2013-05-25 09:31:00,
2013-05-25 02:36:00,42.1,38.5,29.92,NNW,343,0.0,0.0,87,0.00,,,0.00,WeatherCatV1.15B25,2013-05-25 09:36:00,
2013-05-25 02:41:00,42.1,38.5,29.92,NNW,343,0.0,0.0,87,0.00,,,0.00,WeatherCatV1.15B25,2013-05-25 09:41:00,
2013-05-25 02:46:00,42.0,38.4,29.92,NNW,343,0.0,0.0,87,0.00,,,0.00,WeatherCatV1.15B25,2013-05-25 09:46:00,
2013-05-25 02:51:00,42.0,38.4,29.92,NNW,343,0.0,0.0,87,0.00,,,0.00,WeatherCatV1.15B25,2013-05-25 09:51:00,
2013-05-25 02:56:00,41.8,38.2,29.92,NNW,343,0.0,0.0,87,0.00,,,0.00,WeatherCatV1.15B25,2013-05-25 09:56:00,
2013-05-25 03:01:00,41.7,38.1,29.92,NNW,343,0.0,0.0,87,0.00,,,0.00,WeatherCatV1.15B25,2013-05-25 10:01:00,
2013-05-25 03:06:00,41.5,37.9,29.92,NNW,343,0.0,0.0,87,0.00,,,0.00,WeatherCatV1.15B25,2013-05-25 10:06:00,
2013-05-25 03:11:00,41.5,37.9,29.92,NNW,343,0.0,0.0,87,0.00,,,0.00,WeatherCatV1.15B25,2013-05-25 10:11:00,
2013-05-25 03:16:00,41.6,38.6,29.92,NNW,343,0.0,0.0,89,0.00,,,0.00,WeatherCatV1.15B25,2013-05-25 10:16:00,
2013-05-25 03:21:00,41.6,38.3,29.92,NNW,343,0.0,0.0,88,0.00,,,0.00,WeatherCatV1.15B25,2013-05-25 10:21:00,
2013-05-25 03:26:00,41.6,38.3,29.92,NNW,343,0.0,0.0,88,0.00,,,0.00,WeatherCatV1.15B25,2013-05-25 10:26:00,
2013-05-25 03:31:00,41.6,38.0,29.92,NNW,343,0.0,0.0,87,0.00,,,0.00,WeatherCatV1.15B25,2013-05-25 10:31:00,
2013-05-25 03:36:00,41.5,37.9,29.92,NNW,343,0.0,0.0,87,0.00,,,0.00,WeatherCatV1.15B25,2013-05-25 10:36:00,
2013-05-25 03:41:00,41.4,38.1,29.92,NNW,343,0.0,0.0,88,0.00,,,0.00,WeatherCatV1.15B25,2013-05-25 10:41:00,
2013-05-25 03:46:00,41.4,38.1,29.91,NNW,343,0.0,0.0,88,0.00,,,0.00,WeatherCatV1.15B25,2013-05-25 10:46:00,
2013-05-25 03:51:00,41.4,38.1,29.91,NNW,343,0.0,0.0,88,0.00,,,0.00,WeatherCatV1.15B25,2013-05-25 10:51:00,
2013-05-25 03:56:00,41.4,38.1,29.91,NNW,343,0.0,0.0,88,0.00,,,0.00,WeatherCatV1.15B25,2013-05-25 10:56:00,
2013-05-25 04:01:00,41.4,38.1,29.92,NNW,343,0.0,0.0,88,0.00,,,0.00,WeatherCatV1.15B25,2013-05-25 11:01:00,
2013-05-25 04:06:00,41.4,38.1,29.92,NNW,343,0.0,0.0,88,0.00,,,0.00,WeatherCatV1.15B25,2013-05-25 11:06:00,
2013-05-25 04:11:00,41.4,38.1,29.92,NNW,343,0.0,0.0,88,0.00,,,0.00,WeatherCatV1.15B25,2013-05-25 11:11:00,
2013-05-25 04:16:00,41.4,38.1,29.92,NNW,343,0.0,0.0,88,0.00,,,0.00,WeatherCatV1.15B25,2013-05-25 11:16:00,
2013-05-25 04:21:00,41.4,38.1,29.92,NNW,343,0.0,0.0,88,0.00,,,0.00,WeatherCatV1.15B25,2013-05-25 11:21:00,
2013-05-25 04:26:00,41.3,38.0,29.92,NNW,343,0.0,0.0,88,0.00,,,0.00,WeatherCatV1.15B25,2013-05-25 11:26:00,
2013-05-25 04:31:00,41.2,37.9,29.92,NNW,343,0.0,0.0,88,0.00,,,0.00,WeatherCatV1.15B25,2013-05-25 11:31:00,
2013-05-25 04:36:00,41.2,38.2,29.92,NNW,343,0.0,0.0,89,0.00,,,0.00,WeatherCatV1.15B25,2013-05-25 11:36:00,
2013-05-25 04:41:00,41.2,38.2,29.92,NNW,343,0.0,0.0,89,0.00,,,0.00,WeatherCatV1.15B25,2013-05-25 11:41:00,
2013-05-25 04:46:00,41.2,38.2,29.92,NNW,343,0.0,0.0,89,0.00,,,0.00,WeatherCatV1.15B25,2013-05-25 11:46:00,
2013-05-25 04:51:00,41.2,38.2,29.92,NNW,343,0.0,0.0,89,0.00,,,0.00,WeatherCatV1.15B25,2013-05-25 11:51:00,
2013-05-25 04:56:00,41.2,38.2,29.92,NNW,343,0.0,0.0,89,0.00,,,0.00,WeatherCatV1.15B25,2013-05-25 11:56:00,
2013-05-25 05:01:00,41.2,38.2,29.92,NNW,343,0.0,0.0,89,0.00,,,0.00,WeatherCatV1.15B25,2013-05-25 12:01:00,
2013-05-25 05:06:00,41.2,38.2,29.92,NNW,343,0.0,0.0,89,0.00,,,0.00,WeatherCatV1.15B25,2013-05-25 12:06:00,
2013-05-25 05:11:00,41.1,38.1,29.92,NNW,343,0.0,0.0,89,0.00,,,0.00,WeatherCatV1.15B25,2013-05-25 12:11:00,
2013-05-25 05:16:00,41.1,38.1,29.92,NNW,343,0.0,0.0,89,0.00,,,0.00,WeatherCatV1.15B25,2013-05-25 12:16:00,
2013-05-25 05:21:00,41.1,38.1,29.92,NNW,343,0.0,0.0,89,0.00,,,0.00,WeatherCatV1.15B25,2013-05-25 12:21:00,
2013-05-25 05:26:00,41.1,38.1,29.92,NNW,343,0.0,0.0,89,0.00,,,0.00,WeatherCatV1.15B25,2013-05-25 12:26:00,
2013-05-25 05:31:00,41.0,38.0,29.92,NNW,343,0.0,0.0,89,0.00,,,0.00,WeatherCatV1.15B25,2013-05-25 12:31:00,
2013-05-25 05:36:00,40.9,37.9,29.92,NNW,343,0.0,0.0,89,0.00,,,0.00,WeatherCatV1.15B25,2013-05-25 12:36:00,
2013-05-25 05:41:00,40.8,37.8,29.92,NNW,343,0.0,0.0,89,0.00,,,0.00,WeatherCatV1.15B25,2013-05-25 12:41:00,
2013-05-25 05:46:00,40.7,37.7,29.92,NNW,343,0.0,0.0,89,0.00,,,0.00,WeatherCatV1.15B25,2013-05-25 12:46:00,
2013-05-25 05:51:00,40.6,37.6,29.92,NNW,343,0.0,0.0,89,0.00,,,0.00,WeatherCatV1.15B25,2013-05-25 12:51:00,
2013-05-25 05:56:00,40.5,37.8,29.92,NNW,343,0.0,0.0,90,0.00,,,0.00,WeatherCatV1.15B25,2013-05-25 12:56:00,
2013-05-25 06:01:00,40.4,37.7,29.92,NNW,343,0.0,0.0,90,0.00,,,0.00,WeatherCatV1.15B25,2013-05-25 13:01:00,
2013-05-25 06:06:00,40.3,37.9,29.92,NNW,345,0.0,0.0,91,0.00,,,0.00,WeatherCatV1.15B25,2013-05-25 13:06:00,
2013-05-25 06:11:00,40.3,37.6,29.92,NNW,345,0.0,0.0,90,0.00,,,0.00,WeatherCatV1.15B25,2013-05-25 13:11:00,
2013-05-25 06:16:00,40.3,37.6,29.92,NNW,345,0.0,0.0,90,0.00,,,0.00,WeatherCatV1.15B25,2013-05-25 13:16:00,
2013-05-25 06:21:00,40.3,37.6,29.92,NNW,345,0.0,0.0,90,0.00,,,0.00,WeatherCatV1.15B25,2013-05-25 13:21:00,
2013-05-25 06:26:00,40.3,37.9,29.92,NNW,345,0.0,0.0,91,0.00,,,0.00,WeatherCatV1.15B25,2013-05-25 13:26:00,
2013-05-25 06:31:00,40.3,37.9,29.93,NNW,345,0.0,0.0,91,0.00,,,0.00,WeatherCatV1.15B25,2013-05-25 13:31:00,
2013-05-25 06:36:00,40.4,38.3,29.93,NNW,345,0.0,0.0,92,0.00,,,0.00,WeatherCatV1.15B25,2013-05-25 13:36:00,
2013-05-25 06:41:00,40.5,38.6,29.93,NNW,345,0.0,0.0,93,0.00,,,0.00,WeatherCatV1.15B25,2013-05-25 13:41:00,
2013-05-25 06:46:00,40.6,38.7,29.93,NNW,345,0.0,0.0,93,0.00,,,0.00,WeatherCatV1.15B25,2013-05-25 13:46:00,
2013-05-25 06:51:00,40.8,38.9,29.93,NNW,345,0.0,0.0,93,0.00,,,0.00,WeatherCatV1.15B25,2013-05-25 13:51:00,
2013-05-25 06:56:00,40.9,39.3,29.93,NNW,345,0.0,0.0,94,0.00,,,0.00,WeatherCatV1.15B25,2013-05-25 13:56:00,
2013-05-25 07:01:00,41.2,39.6,29.93,NNW,345,0.0,0.0,94,0.00,,,0.00,WeatherCatV1.15B25,2013-05-25 14:01:00,
2013-05-25 07:06:00,41.3,39.7,29.93,NNW,345,0.0,0.0,94,0.00,,,0.00,WeatherCatV1.15B25,2013-05-25 14:06:00,
2013-05-25 07:11:00,41.5,39.9,29.93,NNW,345,0.0,0.0,94,0.00,,,0.00,WeatherCatV1.15B25,2013-05-25 14:11:00,
2013-05-25 07:16:00,41.6,40.0,29.93,NNW,345,0.0,0.0,94,0.00,,,0.00,WeatherCatV1.15B25,2013-05-25 14:16:00,
2013-05-25 07:21:00,41.6,39.7,29.93,NNW,345,0.0,1.0,93,0.00,,,0.00,WeatherCatV1.15B25,2013-05-25 14:21:00,
2013-05-25 07:26:00,41.7,39.8,29.93,NNW,345,0.0,0.0,93,0.00,,,0.00,WeatherCatV1.15B25,2013-05-25 14:26:00,
2013-05-25 07:31:00,41.8,39.9,29.93,NNW,345,0.0,1.0,93,0.00,,,0.00,WeatherCatV1.15B25,2013-05-25 14:31:00,
2013-05-25 07:36:00,41.9,40.0,29.93,NNW,345,0.0,0.0,93,0.00,,,0.00,WeatherCatV1.15B25,2013-05-25 14:36:00,
2013-05-25 07:41:00,42.0,40.1,29.93,NNW,345,0.0,0.0,93,0.00,,,0.00,WeatherCatV1.15B25,2013-05-25 14:41:00,
2013-05-25 07:46:00,42.3,40.4,29.94,NNW,345,0.0,1.0,93,0.00,,,0.00,WeatherCatV1.15B25,2013-05-25 14:46:00,
2013-05-25 07:51:00,42.6,40.7,29.94,NNW,345,0.0,0.0,93,0.00,,,0.00,WeatherCatV1.15B25,2013-05-25 14:51:00,
2013-05-25 07:56:00,43.0,41.1,29.94,ENE,59,0.0,0.0,93,0.00,,,0.00,WeatherCatV1.15B25,2013-05-25 14:56:00,
2013-05-25 08:01:00,43.2,40.8,29.94,SE,127,0.0,1.0,91,0.00,,,0.00,WeatherCatV1.15B25,2013-05-25 15:01:00,
2013-05-25 08:06:00,43.4,41.0,29.94,SE,127,0.0,1.0,91,0.00,,,0.00,WeatherCatV1.15B25,2013-05-25 15:06:00,
2013-05-25 08:11:00,43.7,41.2,29.94,SE,127,0.0,0.0,91,0.00,,,0.00,WeatherCatV1.15B25,2013-05-25 15:11:00,
2013-05-25 08:16:00,44.0,41.5,29.94,SE,131,0.0,1.0,91,0.00,,,0.00,WeatherCatV1.15B25,2013-05-25 15:16:00,
2013-05-25 08:21:00,44.3,41.6,29.94,SE,136,0.0,1.0,90,0.00,,,0.00,WeatherCatV1.15B25,2013-05-25 15:21:00,
2013-05-25 08:26:00,44.6,41.6,29.94,SE,136,0.0,1.0,89,0.00,,,0.00,WeatherCatV1.15B25,2013-05-25 15:26:00,
2013-05-25 08:31:00,45.1,42.1,29.94,SSE,153,1.0,1.0,89,0.00,,,0.00,WeatherCatV1.15B25,2013-05-25 15:31:00,
2013-05-25 08:36:00,45.6,42.3,29.94,SSE,154,0.0,0.0,88,0.00,,,0.00,WeatherCatV1.15B25,2013-05-25 15:36:00,
2013-05-25 08:41:00,46.2,42.5,29.94,SSE,152,0.0,0.0,87,0.00,,,0.00,WeatherCatV1.15B25,2013-05-25 15:41:00,
2013-05-25 08:46:00,46.6,42.6,29.94,SSE,160,0.0,1.0,86,0.00,,,0.00,WeatherCatV1.15B25,2013-05-25 15:46:00,
2013-05-25 08:51:00,47.1,42.8,29.94,SSE,156,1.0,2.0,85,0.00,,,0.00,WeatherCatV1.15B25,2013-05-25 15:51:00,
2013-05-25 08:56:00,47.5,42.9,29.94,SSE,155,0.0,1.0,84,0.00,,,0.00,WeatherCatV1.15B25,2013-05-25 15:56:00,
2013-05-25 09:01:00,47.7,42.8,29.95,SE,140,0.0,2.0,83,0.00,,,0.00,WeatherCatV1.15B25,2013-05-25 16:01:00,
2013-05-25 09:06:00,47.8,42.9,29.95,SE,138,0.0,1.0,83,0.00,,,0.00,WeatherCatV1.15B25,2013-05-25 16:06:00,
2013-05-25 09:11:00,48.1,43.2,29.95,North,353,0.0,1.0,83,0.00,,,0.00,WeatherCatV1.15B25,2013-05-25 16:11:00,
2013-05-25 09:16:00,48.5,43.3,29.95,SE,135,1.0,2.0,82,0.00,,,0.00,WeatherCatV1.15B25,2013-05-25 16:16:00,
2013-05-25 09:21:00,48.7,43.1,29.95,SSE,150,0.0,2.0,81,0.00,,,0.00,WeatherCatV1.15B25,2013-05-25 16:21:00,
2013-05-25 09:26:00,48.8,43.2,29.95,SE,143,1.0,2.0,81,0.00,,,0.00,WeatherCatV1.15B25,2013-05-25 16:26:00,
2013-05-25 09:31:00,49.0,43.1,29.96,SE,140,0.0,0.0,80,0.00,,,0.00,WeatherCatV1.15B25,2013-05-25 16:31:00,
2013-05-25 09:36:00,49.4,43.5,29.96,SE,135,0.0,1.0,80,0.00,,,0.00,WeatherCatV1.15B25,2013-05-25 16:36:00,
2013-05-25 09:41:00,49.6,43.4,29.96,ENE,69,0.0,0.0,79,0.00,,,0.00,WeatherCatV1.15B25,2013-05-25 16:41:00,
2013-05-25 09:46:00,49.9,43.3,29.96,SSE,149,0.0,2.0,78,0.00,,,0.00,WeatherCatV1.15B25,2013-05-25 16:46:00,
2013-05-25 09:51:00,50.5,43.9,29.96,SSE,156,1.0,2.0,78,0.00,,,0.00,WeatherCatV1.15B25,2013-05-25 16:51:00,
2013-05-25 09:56:00,50.9,43.6,29.96,SE,146,0.0,2.0,76,0.00,,,0.00,WeatherCatV1.15B25,2013-05-25 16:56:00,
2013-05-25 10:01:00,51.5,43.8,29.96,SE,132,0.0,1.0,75,0.00,,,0.00,WeatherCatV1.15B25,2013-05-25 17:01:00,
2013-05-25 10:06:00,52.2,43.4,29.96,SSE,151,0.0,1.0,72,0.00,,,0.00,WeatherCatV1.15B25,2013-05-25 17:06:00,
2013-05-25 10:11:00,52.6,43.8,29.96,SE,144,0.0,2.0,72,0.00,,,0.00,WeatherCatV1.15B25,2013-05-25 17:11:00,
2013-05-25 10:16:00,53.0,43.1,29.96,SE,144,2.0,2.0,69,0.00,,,0.00,WeatherCatV1.15B25,2013-05-25 17:16:00,
2013-05-25 10:21:00,53.7,43.0,29.96,NE,45,1.0,2.0,67,0.00,,,0.00,WeatherCatV1.15B25,2013-05-25 17:21:00,
2013-05-25 10:26:00,54.2,43.1,29.96,NNE,14,0.0,2.0,66,0.00,,,0.00,WeatherCatV1.15B25,2013-05-25 17:26:00,
2013-05-25 10:31:00,54.7,44.3,29.96,South,171,0.0,2.0,68,0.00,,,0.00,WeatherCatV1.15B25,2013-05-25 17:31:00,
2013-05-25 10:36:00,54.8,44.4,29.96,ENE,77,0.0,2.0,68,0.00,,,0.00,WeatherCatV1.15B25,2013-05-25 17:36:00,
2013-05-25 10:41:00,55.0,45.0,29.96,SE,138,0.0,3.0,69,0.00,,,0.00,WeatherCatV1.15B25,2013-05-25 17:41:00,
2013-05-25 10:46:00,55.4,45.4,29.96,ESE,118,1.0,2.0,69,0.00,,,0.00,WeatherCatV1.15B25,2013-05-25 17:46:00,
2013-05-25 10:51:00,56.0,46.0,29.96,SE,127,1.0,1.0,69,0.00,,,0.00,WeatherCatV1.15B25,2013-05-25 17:51:00,
2013-05-25 10:56:00,56.3,45.1,29.96,SE,133,0.0,0.0,66,0.00,,,0.00,WeatherCatV1.15B25,2013-05-25 17:56:00,
2013-05-25 11:01:00,56.7,45.5,29.96,WNW,291,1.0,2.0,66,0.00,,,0.00,WeatherCatV1.15B25,2013-05-25 18:01:00,
2013-05-25 11:06:00,56.9,45.3,29.96,SE,146,0.0,2.0,65,0.00,,,0.00,WeatherCatV1.15B25,2013-05-25 18:06:00,
2013-05-25 11:11:00,57.2,43.0,29.96,SE,144,2.0,3.0,59,0.00,,,0.00,WeatherCatV1.15B25,2013-05-25 18:11:00,
2013-05-25 11:16:00,57.7,43.9,29.97,SE,142,0.0,1.0,60,0.00,,,0.00,WeatherCatV1.15B25,2013-05-25 18:16:00,
2013-05-25 11:21:00,58.3,45.3,29.97,SSE,151,0.0,0.0,62,0.00,,,0.00,WeatherCatV1.15B25,2013-05-25 18:21:00,
2013-05-25 11:26:00,58.4,44.1,29.97,NE,44,0.0,1.0,59,0.00,,,0.00,WeatherCatV1.15B25,2013-05-25 18:26:00,
2013-05-25 11:31:00,58.7,43.0,29.97,SE,141,0.0,3.0,56,0.00,,,0.00,WeatherCatV1.15B25,2013-05-25 18:31:00,
2013-05-25 11:36:00,58.9,44.1,29.97,SE,138,0.0,2.0,58,0.00,,,0.00,WeatherCatV1.15B25,2013-05-25 18:36:00,
2013-05-25 11:41:00,59.5,45.2,29.97,SE,144,0.0,2.0,59,0.00,,,0.00,WeatherCatV1.15B25,2013-05-25 18:41:00,
2013-05-25 11:46:00,60.4,44.2,29.97,NNW,330,0.0,3.0,55,0.00,,,0.00,WeatherCatV1.15B25,2013-05-25 18:46:00,
2013-05-25 11:51:00,60.3,43.1,29.97,NNW,339,0.0,1.0,53,0.00,,,0.00,WeatherCatV1.15B25,2013-05-25 18:51:00,
2013-05-25 11:56:00,60.8,45.5,29.97,East,99,0.0,1.0,57,0.00,,,0.00,WeatherCatV1.15B25,2013-05-25 18:56:00,
2013-05-25 12:01:00,61.8,45.0,29.98,SSE,162,2.0,2.0,54,0.00,,,0.00,WeatherCatV1.15B25,2013-05-25 19:01:00,
2013-05-25 12:06:00,62.9,45.0,29.98,SE,144,0.0,1.0,52,0.00,,,0.00,WeatherCatV1.15B25,2013-05-25 19:06:00,
2013-05-25 12:11:00,63.2,43.7,29.98,SE,144,0.0,0.0,49,0.00,,,0.00,WeatherCatV1.15B25,2013-05-25 19:11:00,
2013-05-25 12:16:00,63.6,45.1,29.98,SE,142,0.0,1.0,51,0.00,,,0.00,WeatherCatV1.15B25,2013-05-25 19:16:00,
2013-05-25 12:21:00,64.0,44.5,29.98,NNW,339,0.0,2.0,49,0.00,,,0.00,WeatherCatV1.15B25,2013-05-25 19:21:00,
2013-05-25 12:26:00,64.3,45.8,29.98,SE,132,1.0,2.0,51,0.00,,,0.00,WeatherCatV1.15B25,2013-05-25 19:26:00,
2013-05-25 12:31:00,65.0,47.4,29.98,SSE,162,0.0,1.0,53,0.00,,,0.00,WeatherCatV1.15B25,2013-05-25 19:31:00,
2013-05-25 12:36:00,65.6,47.0,29.98,SSE,154,0.0,1.0,51,0.00,,,0.00,WeatherCatV1.15B25,2013-05-25 19:36:00,
2013-05-25 12:41:00,65.5,47.9,29.98,SSE,154,1.0,2.0,53,0.00,,,0.00,WeatherCatV1.15B25,2013-05-25 19:41:00,
2013-05-25 12:46:00,65.8,46.6,29.97,NNE,13,0.0,0.0,50,0.00,,,0.00,WeatherCatV1.15B25,2013-05-25 19:46:00,
2013-05-25 12:51:00,65.8,46.6,29.97,SE,144,1.0,2.0,50,0.00,,,0.00,WeatherCatV1.15B25,2013-05-25 19:51:00,
2013-05-25 12:56:00,65.9,48.3,29.97,SSE,151,0.0,2.0,53,0.00,,,0.00,WeatherCatV1.15B25,2013-05-25 19:56:00,
2013-05-25 13:01:00,65.9,46.7,29.98,South,169,0.0,2.0,50,0.00,,,0.00,WeatherCatV1.15B25,2013-05-25 20:01:00,
2013-05-25 13:06:00,65.7,46.5,29.98,SSE,151,0.0,1.0,50,0.00,,,0.00,WeatherCatV1.15B25,2013-05-25 20:06:00,
2013-05-25 13:11:00,65.8,47.7,29.98,SSE,147,0.0,1.0,52,0.00,,,0.00,WeatherCatV1.15B25,2013-05-25 20:11:00,
2013-05-25 13:16:00,66.4,47.7,29.98,SSE,160,0.0,0.0,51,0.00,,,0.00,WeatherCatV1.15B25,2013-05-25 20:16:00,
2013-05-25 13:22:00,67.3,48.0,29.98,SE,131,0.0,1.0,50,0.00,,,0.00,WeatherCatV1.15B25,2013-05-25 20:22:00,
2013-05-25 13:27:00,67.7,47.3,29.98,SE,144,1.0,3.0,48,0.00,,,0.00,WeatherCatV1.15B25,2013-05-25 20:27:00,
2013-05-25 13:32:00,67.4,47.0,29.98,SE,133,0.0,2.0,48,0.00,,,0.00,WeatherCatV1.15B25,2013-05-25 20:32:00,
2013-05-25 13:45:00,67.8,46.3,29.98,NE,39,1.0,2.0,46,0.00,,,0.00,WeatherCatV1.15B25,2013-05-25 20:45:00,
2013-05-25 13:50:00,68.3,46.7,29.98,ESE,119,0.0,2.0,46,0.00,,,0.00,WeatherCatV1.15B25,2013-05-25 20:50:00,
2013-05-25 13:55:00,68.5,48.0,29.98,SE,137,0.0,3.0,48,0.00,,,0.00,WeatherCatV1.15B25,2013-05-25 20:55:00,
2013-05-25 14:00:00,68.6,48.1,29.98,NNW,334,2.0,2.0,48,0.00,,,0.00,WeatherCatV1.15B25,2013-05-25 21:00:00,
2013-05-25 14:05:00,68.6,46.4,29.98,North,4,0.0,3.0,45,0.00,,,0.00,WeatherCatV1.15B25,2013-05-25 21:05:00,
2013-05-25 14:10:00,68.1,46.5,29.98,SSE,153,0.0,1.0,46,0.00,,,0.00,WeatherCatV1.15B25,2013-05-25 21:10:00,
2013-05-25 14:15:00,67.9,46.9,29.98,SW,233,1.0,2.0,47,0.00,,,0.00,WeatherCatV1.15B25,2013-05-25 21:15:00,
2013-05-25 14:20:00,68.1,46.5,29.98,NNW,346,0.0,2.0,46,0.00,,,0.00,WeatherCatV1.15B25,2013-05-25 21:20:00,
2013-05-25 14:25:00,68.3,46.7,29.98,North,354,0.0,2.0,46,0.00,,,0.00,WeatherCatV1.15B25,2013-05-25 21:25:00,
2013-05-25 14:30:00,68.2,46.0,29.98,ENE,59,1.0,1.0,45,0.00,,,0.00,WeatherCatV1.15B25,2013-05-25 21:30:00,
2013-05-25 14:35:00,68.3,47.3,29.98,SSE,158,0.0,1.0,47,0.00,,,0.00,WeatherCatV1.15B25,2013-05-25 21:35:00,
2013-05-25 14:40:00,68.5,46.3,29.98,NNW,344,1.0,2.0,45,0.00,,,0.00,WeatherCatV1.15B25,2013-05-25 21:40:00,
2013-05-25 14:45:00,68.4,46.8,29.98,ESE,105,0.0,0.0,46,0.00,,,0.00,WeatherCatV1.15B25,2013-05-25 21:45:00,
2013-05-25 14:50:00,68.5,46.9,29.98,SE,132,0.0,0.0,46,0.00,,,0.00,WeatherCatV1.15B25,2013-05-25 21:50:00,
2013-05-25 14:53:00,68.6,47.0,29.98,SE,141,0.0,0.0,46,0.00,,,0.00,WeatherCatV1.15B25,2013-05-25 21:53:00,
2013-05-25 14:58:00,68.5,46.3,29.98,SSE,156,0.0,3.0,45,0.00,,,0.00,WeatherCatV1.15B25,2013-05-25 21:58:00,
2013-05-25 15:03:00,68.2,46.0,29.98,South,173,0.0,2.0,45,0.00,,,0.00,WeatherCatV1.15B25,2013-05-25 22:03:00,
2013-05-25 15:08:00,68.2,46.0,29.98,East,99,1.0,2.0,45,0.00,,,0.00,WeatherCatV1.15B25,2013-05-25 22:08:00,
2013-05-25 15:13:00,67.9,46.3,29.98,ESE,112,0.0,2.0,46,0.00,,,0.00,WeatherCatV1.15B25,2013-05-25 22:13:00,
2013-05-25 15:18:00,67.6,46.1,29.98,ESE,106,0.0,2.0,46,0.00,,,0.00,WeatherCatV1.15B25,2013-05-25 22:18:00,
2013-05-25 15:23:00,67.2,45.1,29.98,SE,133,0.0,2.0,45,0.00,,,0.00,WeatherCatV1.15B25,2013-05-25 22:23:00,
2013-05-25 15:28:00,66.8,44.8,29.98,SE,138,0.0,2.0,45,0.00,,,0.00,WeatherCatV1.15B25,2013-05-25 22:28:00,
2013-05-25 15:33:00,66.6,45.7,29.98,North,8,2.0,2.0,47,0.00,,,0.00,WeatherCatV1.15B25,2013-05-25 22:33:00,
2013-05-25 15:38:00,66.7,45.3,29.98,South,172,0.0,1.0,46,0.00,,,0.00,WeatherCatV1.15B25,2013-05-25 22:38:00,
2013-05-25 15:43:00,66.6,45.2,29.98,North,3,0.0,2.0,46,0.00,,,0.00,WeatherCatV1.15B25,2013-05-25 22:43:00,
2013-05-25 15:48:00,66.4,44.4,29.98,SE,138,0.0,0.0,45,0.00,,,0.00,WeatherCatV1.15B25,2013-05-25 22:48:00,
2013-05-25 15:53:00,66.1,44.7,29.98,ESE,106,1.0,1.0,46,0.00,,,0.00,WeatherCatV1.15B25,2013-05-25 22:53:00,
2013-05-25 15:58:00,65.9,44.5,29.98,SE,133,0.0,1.0,46,0.00,,,0.00,WeatherCatV1.15B25,2013-05-25 22:58:00,
2013-05-25 16:03:00,65.9,43.4,29.98,South,169,0.0,2.0,44,0.00,,,0.00,WeatherCatV1.15B25,2013-05-25 23:03:00,
2013-05-25 16:08:00,65.8,43.9,29.98,SE,131,0.0,1.0,45,0.00,,,0.00,WeatherCatV1.15B25,2013-05-25 23:08:00,
2013-05-25 16:13:00,65.7,43.2,29.98,SE,132,0.0,0.0,44,0.00,,,0.00,WeatherCatV1.15B25,2013-05-25 23:13:00,
2013-05-25 16:18:00,65.5,43.6,29.98,NE,46,0.0,1.0,45,0.00,,,0.00,WeatherCatV1.15B25,2013-05-25 23:18:00,
2013-05-25 16:23:00,65.4,43.5,29.98,ESE,117,0.0,0.0,45,0.00,,,0.00,WeatherCatV1.15B25,2013-05-25 23:23:00,
2013-05-25 16:28:00,65.5,43.0,29.98,East,87,0.0,1.0,44,0.00,,,0.00,WeatherCatV1.15B25,2013-05-25 23:28:00,
2013-05-25 16:33:00,65.4,41.7,29.98,ESE,106,0.0,1.0,42,0.00,,,0.00,WeatherCatV1.15B25,2013-05-25 23:33:00,
2013-05-25 16:38:00,65.1,42.6,29.98,SE,131,0.0,0.0,44,0.00,,,0.00,WeatherCatV1.15B25,2013-05-25 23:38:00,
2013-05-25 16:43:00,65.0,43.1,29.98,WSW,239,0.0,0.0,45,0.00,,,0.00,WeatherCatV1.15B25,2013-05-25 23:43:00,
2013-05-25 16:48:00,64.9,43.0,29.98,East,98,0.0,1.0,45,0.00,,,0.00,WeatherCatV1.15B25,2013-05-25 23:48:00,
2013-05-25 16:53:00,64.7,42.9,29.98,SSE,152,1.0,1.0,45,0.00,,,0.00,WeatherCatV1.15B25,2013-05-25 23:53:00,
2013-05-25 16:58:00,64.5,42.7,29.98,SSW,196,0.0,1.0,45,0.00,,,0.00,WeatherCatV1.15B25,2013-05-25 23:58:00,
2013-05-25 17:03:00,64.3,43.1,29.98,NNW,327,0.0,2.0,46,0.00,,,0.00,WeatherCatV1.15B25,2013-05-26 00:03:00,
2013-05-25 17:08:00,64.2,43.0,29.98,ESE,102,1.0,1.0,46,0.00,,,0.00,WeatherCatV1.15B25,2013-05-26 00:08:00,
2013-05-25 17:14:00,64.0,42.8,29.98,SSE,162,0.0,2.0,46,0.00,,,0.00,WeatherCatV1.15B25,2013-05-26 00:14:00,
2013-05-25 17:19:00,63.7,42.5,29.98,SSE,158,0.0,1.0,46,0.00,,,0.00,WeatherCatV1.15B25,2013-05-26 00:19:00,
2013-05-25 17:24:00,63.5,43.5,29.98,SSE,165,0.0,0.0,48,0.00,,,0.00,WeatherCatV1.15B25,2013-05-26 00:24:00,
2013-05-25 17:29:00,63.2,43.2,29.98,SSE,164,0.0,1.0,48,0.00,,,0.00,WeatherCatV1.15B25,2013-05-26 00:29:00,
2013-05-25 17:34:00,63.1,43.6,29.98,SSE,164,0.0,0.0,49,0.00,,,0.00,WeatherCatV1.15B25,2013-05-26 00:34:00,
2013-05-25 17:39:00,62.8,43.4,29.98,SSE,148,2.0,2.0,49,0.00,,,0.00,WeatherCatV1.15B25,2013-05-26 00:39:00,
2013-05-25 17:44:00,62.6,42.1,29.98,NNW,344,2.0,4.0,47,0.00,,,0.00,WeatherCatV1.15B25,2013-05-26 00:44:00,
2013-05-25 17:49:00,62.2,41.7,29.98,NNW,345,0.0,3.0,47,0.00,,,0.00,WeatherCatV1.15B25,2013-05-26 00:49:00,
2013-05-25 17:54:00,61.9,42.0,29.98,NNW,339,0.0,0.0,48,0.00,,,0.00,WeatherCatV1.15B25,2013-05-26 00:54:00,
2013-05-25 17:59:00,61.6,41.2,29.98,North,0,1.0,2.0,47,0.00,,,0.00,WeatherCatV1.15B25,2013-05-26 00:59:00,
2013-05-25 18:04:00,61.2,41.3,29.98,NNW,337,2.0,7.0,48,0.00,,,0.00,WeatherCatV1.15B25,2013-05-26 01:04:00,
2013-05-25 18:09:00,60.8,42.0,29.98,North,10,1.0,2.0,50,0.00,,,0.00,WeatherCatV1.15B25,2013-05-26 01:09:00,
2013-05-25 18:14:00,60.4,41.2,29.98,NNW,345,0.0,1.0,49,0.00,,,0.00,WeatherCatV1.15B25,2013-05-26 01:14:00,
2013-05-25 18:19:00,60.1,40.9,29.98,NNE,16,0.0,1.0,49,0.00,,,0.00,WeatherCatV1.15B25,2013-05-26 01:19:00,
2013-05-25 18:24:00,59.9,40.2,29.98,North,352,0.0,4.0,48,0.00,,,0.00,WeatherCatV1.15B25,2013-05-26 01:24:00,
2013-05-25 18:29:00,59.8,40.6,29.98,NNE,18,0.0,3.0,49,0.00,,,0.00,WeatherCatV1.15B25,2013-05-26 01:29:00,
2013-05-25 18:34:00,59.6,40.4,29.98,NNW,342,1.0,2.0,49,0.00,,,0.00,WeatherCatV1.15B25,2013-05-26 01:34:00,
2013-05-25 18:39:00,59.4,40.8,29.98,NNW,348,2.0,2.0,50,0.00,,,0.00,WeatherCatV1.15B25,2013-05-26 01:39:00,
2013-05-25 18:44:00,59.2,40.0,29.98,NNW,341,1.0,2.0,49,0.00,,,0.00,WeatherCatV1.15B25,2013-05-26 01:44:00,
2013-05-25 18:49:00,58.8,40.7,29.98,NNW,343,2.0,3.0,51,0.00,,,0.00,WeatherCatV1.15B25,2013-05-26 01:49:00,
2013-05-25 18:54:00,58.4,40.3,29.98,NNW,341,2.0,6.0,51,0.00,,,0.00,WeatherCatV1.15B25,2013-05-26 01:54:00,
2013-05-25 18:59:00,58.0,40.0,29.98,NNW,337,0.0,3.0,51,0.00,,,0.00,WeatherCatV1.15B25,2013-05-26 01:59:00,
2013-05-25 19:04:00,57.7,39.2,29.99,NNW,332,0.0,2.0,50,0.00,,,0.00,WeatherCatV1.15B25,2013-05-26 02:04:00,
2013-05-25 19:09:00,57.3,39.3,29.99,North,353,2.0,3.0,51,0.00,,,0.00,WeatherCatV1.15B25,2013-05-26 02:09:00,
2013-05-25 19:14:00,57.1,39.6,29.99,North,353,0.0,0.0,52,0.00,,,0.00,WeatherCatV1.15B25,2013-05-26 02:14:00,
2013-05-25 19:19:00,56.9,39.5,29.99,NNW,339,0.0,1.0,52,0.00,,,0.00,WeatherCatV1.15B25,2013-05-26 02:19:00,
2013-05-25 19:24:00,56.8,37.8,29.99,North,11,4.0,4.0,49,0.00,,,0.00,WeatherCatV1.15B25,2013-05-26 02:24:00,
2013-05-25 19:29:00,56.6,38.2,29.99,NNW,335,0.0,0.0,50,0.00,,,0.00,WeatherCatV1.15B25,2013-05-26 02:29:00,
2013-05-25 19:34:00,56.4,40.0,29.99,NNW,339,0.0,1.0,54,0.00,,,0.00,WeatherCatV1.15B25,2013-05-26 02:34:00,
2013-05-25 19:39:00,56.2,40.2,29.99,NNW,339,0.0,1.0,55,0.00,,,0.00,WeatherCatV1.15B25,2013-05-26 02:39:00,
2013-05-25 19:44:00,56.0,41.0,29.99,NNW,339,0.0,0.0,57,0.00,,,0.00,WeatherCatV1.15B25,2013-05-26 02:44:00,
2013-05-25 19:49:00,55.8,40.8,29.99,NNW,339,0.0,1.0,57,0.00,,,0.00,WeatherCatV1.15B25,2013-05-26 02:49:00,
2013-05-25 19:54:00,55.5,39.6,29.99,NNW,328,1.0,3.0,55,0.00,,,0.00,WeatherCatV1.15B25,2013-05-26 02:54:00,
2013-05-25 19:59:00,55.3,39.4,29.99,NNW,328,0.0,1.0,55,0.00,,,0.00,WeatherCatV1.15B25,2013-05-26 02:59:00,
2013-05-25 20:04:00,55.0,39.6,30.00,NNW,331,1.0,1.0,56,0.00,,,0.00,WeatherCatV1.15B25,2013-05-26 03:04:00,
2013-05-25 20:09:00,54.6,39.7,30.00,NNW,339,2.0,5.0,57,0.00,,,0.00,WeatherCatV1.15B25,2013-05-26 03:09:00,
2013-05-25 20:14:00,54.2,39.7,30.00,North,354,1.0,3.0,58,0.00,,,0.00,WeatherCatV1.15B25,2013-05-26 03:14:00,
2013-05-25 20:19:00,53.8,39.8,30.00,NNW,334,2.0,3.0,59,0.00,,,0.00,WeatherCatV1.15B25,2013-05-26 03:19:00,
2013-05-25 20:24:00,53.5,40.0,30.00,NNW,337,1.0,2.0,60,0.00,,,0.00,WeatherCatV1.15B25,2013-05-26 03:24:00,
2013-05-25 20:29:00,53.3,40.2,30.00,NNW,337,0.0,0.0,61,0.00,,,0.00,WeatherCatV1.15B25,2013-05-26 03:29:00,
2013-05-25 20:34:00,53.0,39.9,30.00,NNW,335,2.0,2.0,61,0.00,,,0.00,WeatherCatV1.15B25,2013-05-26 03:34:00,
2013-05-25 20:39:00,52.8,40.1,30.00,NNW,335,0.0,0.0,62,0.00,,,0.00,WeatherCatV1.15B25,2013-05-26 03:39:00,
2013-05-25 20:44:00,52.6,40.8,30.00,NNW,335,0.0,0.0,64,0.00,,,0.00,WeatherCatV1.15B25,2013-05-26 03:44:00,
2013-05-25 20:49:00,52.4,41.4,30.00,NNW,335,0.0,0.0,66,0.00,,,0.00,WeatherCatV1.15B25,2013-05-26 03:49:00,
2013-05-25 20:54:00,52.0,41.4,30.00,NNW,335,0.0,0.0,67,0.00,,,0.00,WeatherCatV1.15B25,2013-05-26 03:54:00,
2013-05-25 20:59:00,51.6,41.4,30.00,NNW,335,0.0,0.0,68,0.00,,,0.00,WeatherCatV1.15B25,2013-05-26 03:59:00,
2013-05-25 21:01:00,51.5,41.7,30.00,NNW,335,0.0,0.0,69,0.00,,,0.00,WeatherCatV1.15B25,2013-05-26 04:01:00,
2013-05-25 21:06:00,51.1,41.7,30.00,NNW,335,0.0,0.0,70,0.00,,,0.00,WeatherCatV1.15B25,2013-05-26 04:06:00,
2013-05-25 21:11:00,50.8,41.7,30.00,NNW,335,0.0,0.0,71,0.00,,,0.00,WeatherCatV1.15B25,2013-05-26 04:11:00,
2013-05-25 21:16:00,50.6,41.9,30.00,NNW,335,0.0,0.0,72,0.00,,,0.00,WeatherCatV1.15B25,2013-05-26 04:16:00,
2013-05-25 21:21:00,50.4,41.7,30.00,NNW,335,0.0,0.0,72,0.00,,,0.00,WeatherCatV1.15B25,2013-05-26 04:21:00,
2013-05-25 21:26:00,50.1,41.8,30.00,NNW,335,0.0,1.0,73,0.00,,,0.00,WeatherCatV1.15B25,2013-05-26 04:26:00,
2013-05-25 21:31:00,50.0,41.7,30.00,NNW,335,0.0,0.0,73,0.00,,,0.00,WeatherCatV1.15B25,2013-05-26 04:31:00,
2013-05-25 21:36:00,49.9,41.6,30.00,NNW,335,0.0,0.0,73,0.00,,,0.00,WeatherCatV1.15B25,2013-05-26 04:36:00,
2013-05-25 21:41:00,49.7,41.0,30.00,NNW,335,0.0,0.0,72,0.00,,,0.00,WeatherCatV1.15B25,2013-05-26 04:41:00,
2013-05-25 21:46:00,49.7,41.0,30.01,NNW,335,0.0,0.0,72,0.00,,,0.00,WeatherCatV1.15B25,2013-05-26 04:46:00,
2013-05-25 21:51:00,49.6,41.3,30.01,NNW,335,0.0,0.0,73,0.00,,,0.00,WeatherCatV1.15B25,2013-05-26 04:51:00,
2013-05-25 21:56:00,49.5,41.9,30.01,NNW,335,0.0,0.0,75,0.00,,,0.00,WeatherCatV1.15B25,2013-05-26 04:56:00,
2013-05-25 22:01:00,49.4,41.8,30.01,NNW,335,0.0,0.0,75,0.00,,,0.00,WeatherCatV1.15B25,2013-05-26 05:01:00,
2013-05-25 22:06:00,49.2,42.0,30.01,NNW,335,0.0,0.0,76,0.00,,,0.00,WeatherCatV1.15B25,2013-05-26 05:06:00,
2013-05-25 22:11:00,49.0,41.8,30.01,NNW,335,0.0,0.0,76,0.00,,,0.00,WeatherCatV1.15B25,2013-05-26 05:11:00,
2013-05-25 22:16:00,48.5,41.3,30.02,NNW,335,0.0,0.0,76,0.00,,,0.00,WeatherCatV1.15B25,2013-05-26 05:16:00,
2013-05-25 22:21:00,48.2,41.0,30.02,NNW,335,0.0,0.0,76,0.00,,,0.00,WeatherCatV1.15B25,2013-05-26 05:21:00,
2013-05-25 22:26:00,48.0,40.8,30.02,NNW,335,0.0,0.0,76,0.00,,,0.00,WeatherCatV1.15B25,2013-05-26 05:26:00,
2013-05-25 22:31:00,47.8,40.9,30.02,NNW,335,0.0,0.0,77,0.00,,,0.00,WeatherCatV1.15B25,2013-05-26 05:31:00,
2013-05-25 22:36:00,47.7,41.2,30.02,NNW,335,0.0,0.0,78,0.00,,,0.00,WeatherCatV1.15B25,2013-05-26 05:36:00,
2013-05-25 22:41:00,47.6,41.4,30.02,NNW,335,0.0,0.0,79,0.00,,,0.00,WeatherCatV1.15B25,2013-05-26 05:41:00,
2013-05-25 22:46:00,47.5,41.3,30.02,NNW,335,0.0,0.0,79,0.00,,,0.00,WeatherCatV1.15B25,2013-05-26 05:46:00,
2013-05-25 22:51:00,47.3,41.4,30.02,NNW,335,0.0,0.0,80,0.00,,,0.00,WeatherCatV1.15B25,2013-05-26 05:51:00,
2013-05-25 22:56:00,47.2,41.3,30.02,NNW,335,0.0,0.0,80,0.00,,,0.00,WeatherCatV1.15B25,2013-05-26 05:56:00,
2013-05-25 23:01:00,47.2,41.3,30.02,NNW,335,0.0,0.0,80,0.00,,,0.00,WeatherCatV1.15B25,2013-05-26 06:01:00,
2013-05-25 23:06:00,47.2,41.3,30.02,NNW,335,0.0,0.0,80,0.00,,,0.00,WeatherCatV1.15B25,2013-05-26 06:06:00,
2013-05-25 23:11:00,47.2,41.7,30.02,NNW,335,0.0,0.0,81,0.00,,,0.00,WeatherCatV1.15B25,2013-05-26 06:11:00,
2013-05-25 23:16:00,47.2,41.7,30.02,NNW,335,0.0,0.0,81,0.00,,,0.00,WeatherCatV1.15B25,2013-05-26 06:16:00,
2013-05-25 23:21:00,47.1,41.6,30.02,NNW,335,0.0,0.0,81,0.00,,,0.00,WeatherCatV1.15B25,2013-05-26 06:21:00,
2013-05-25 23:26:00,47.1,41.6,30.02,NNW,335,0.0,0.0,81,0.00,,,0.00,WeatherCatV1.15B25,2013-05-26 06:26:00,
2013-05-25 23:31:00,47.1,42.2,30.02,NNW,335,0.0,2.0,83,0.00,,,0.00,WeatherCatV1.15B25,2013-05-26 06:31:00,
2013-05-25 23:36:00,47.2,42.3,30.02,NNW,335,0.0,0.0,83,0.00,,,0.00,WeatherCatV1.15B25,2013-05-26 06:36:00,
2013-05-25 23:41:00,47.3,42.1,30.02,NNW,335,0.0,0.0,82,0.00,,,0.00,WeatherCatV1.15B25,2013-05-26 06:41:00,
2013-05-25 23:46:00,47.3,42.4,30.02,NNW,335,0.0,0.0,83,0.00,,,0.00,WeatherCatV1.15B25,2013-05-26 06:46:00,
2013-05-25 23:51:00,47.3,42.4,30.02,NNW,335,0.0,1.0,83,0.00,,,0.00,WeatherCatV1.15B25,2013-05-26 06:51:00,
2013-05-25 23:56:00,47.3,42.4,30.02,NNW,335,0.0,0.0,83,0.00,,,0.00,WeatherCatV1.15B25,2013-05-26 06:56:00,